Theta_e
294 299 301 303 306 309 314 317 318 318 318 318 317 317 320 321 322 324 324 324 324 323 323 322 322 323 322 322 322 322 320 318 316 315 312 309 306 304 303 302 301 301 301 301 301 301 301 301 301 302 301 301 302 301 301 300 299 299 299 299 300 300 300 300 300 300 301 301 301 301 300 300 301 300 299 299 299 299 299 299 298 298 298 299 298
295 298 300 302 304 305 307 310 312 314 314 317 314 312 316 318 319 322 321 320 320 320 321 321 321 321 320 319 319 318 315 314 312 308 305 302 301 300 300 300 300 300 301 301 300 300 301 301 301 301 301 300 300 299 299 299 299 299 298 298 298 298 298 298 299 299 299 299 299 299 299 299 300 300 298 298 298 298 298 298 297 297 297 297 297
297 299 300 301 303 304 306 305 306 307 307 310 309 307 313 317 316 318 317 316 317 316 317 319 319 317 316 315 314 312 310 308 306 302 300 299 299 300 300 300 300 300 300 300 300 301 301 301 301 300 299 299 299 298 298 298 298 298 298 297 297 297 297 297 297 297 297 297 297 297 297 297 298 298 298 298 298 297 296 296 296 296 296 296 296
299 301 301 301 302 304 306 306 306 307 307 309 306 305 310 314 313 313 313 314 315 314 313 314 314 313 313 312 310 307 304 302 301 299 299 299 299 299 299 299 299 300 300 300 300 300 300 300 299 299 298 298 298 298 297 297 297 297 297 296 296 296 295 295 295 295 295 295 294 294 295 296 296 295 295 297 297 295 295 295 295 296 295 295 295
296 299 302 303 304 304 305 307 306 308 310 312 309 307 309 311 311 311 310 310 311 312 310 310 310 310 308 307 304 302 300 298 298 298 298 298 299 299 299 299 299 299 299 299 299 298 298 298 297 297 297 297 296 297 296 296 296 296 296 295 295 295 294 294 293 294 293 292 292 292 293 293 292 291 292 296 296 294 294 294 294 295 294 294 295
294 297 300 303 307 307 307 307 307 309 312 312 311 310 310 310 310 309 307 306 307 307 306 305 306 306 304 303 301 299 298 297 298 298 298 298 299 299 298 298 298 298 297 297 297 297 297 296 296 296 296 296 296 295 295 295 295 295 295 295 294 294 293 292 292 292 292 291 291 290 290 290 289 289 291 293 293 294 294 293 292 293 293 293 293
294 297 299 301 306 309 307 306 307 309 310 308 310 311 310 308 307 305 303 303 303 303 301 301 301 301 301 300 299 298 298 298 298 298 298 298 298 297 297 297 296 296 296 296 296 296 296 295 295 295 295 295 295 295 295 295 294 294 294 293 293 293 292 292 291 291 291 290 290 289 289 289 288 288 289 289 291 293 294 294 293 293 292 292 292
295 298 299 300 304 307 306 304 305 306 305 304 307 307 304 303 302 302 301 301 301 300 299 299 298 298 298 298 298 298 298 299 299 298 298 297 296 296 296 296 295 295 295 295 295 295 295 295 294 294 294 294 294 294 294 293 293 293 292 292 292 292 291 291 290 290 290 289 289 289 288 288 287 287 287 287 288 290 291 291 293 293 292 292 291
294 296 298 300 303 304 304 304 304 305 304 304 305 304 302 301 301 301 302 302 302 300 298 298 297 297 297 297 298 298 299 299 298 297 297 296 295 295 295 294 294 294 294 294 294 294 294 294 294 294 294 293 293 293 292 292 292 292 291 291 291 291 290 290 289 289 288 288 288 287 287 286 286 286 286 285 286 287 288 288 290 291 290 290 290
292 294 296 299 301 302 302 302 303 305 305 305 305 303 303 303 302 302 302 301 300 299 298 297 297 297 297 297 298 298 298 297 296 295 295 294 294 294 294 294 294 293 293 293 293 293 293 293 293 293 293 292 292 292 292 291 291 291 290 290 290 289 289 289 288 288 287 287 287 286 286 285 285 286 285 285 285 287 287 287 287 288 288 288 288
292 293 295 298 299 299 299 300 301 303 304 303 302 301 302 301 300 300 299 298 298 297 296 296 296 296 297 297 297 296 296 295 294 294 294 293 293 293 293 293 293 293 293 293 293 293 293 292 292 292 292 291 291 291 291 290 290 289 289 289 288 288 288 287 287 287 287 286 286 285 284 284 284 284 284 284 284 285 286 286 286 286 286 286 286
292 293 294 295 296 296 296 297 297 299 299 299 299 298 298 298 297 297 297 296 295 295 295 294 295 295 295 295 295 294 294 293 293 293 293 293 293 293 293 293 293 293 292 292 292 292 292 292 291 291 291 290 290 290 289 289 289 288 288 288 287 287 287 286 286 286 285 285 284 284 283 283 283 283 283 282 283 284 284 285 286 285 285 286 285
292 292 292 293 293 293 293 294 295 296 296 296 296 296 296 295 295 295 295 294 294 293 293 293 294 294 294 294 293 293 293 293 293 293 293 293 293 293 292 292 292 292 292 292 292 291 291 291 290 290 290 289 289 289 288 288 288 287 287 287 286 286 286 285 285 284 284 284 283 283 283 282 282 282 282 282 282 282 284 285 285 285 285 285 285
291 290 289 290 291 291 291 292 293 295 295 295 295 294 294 293 293 293 293 293 293 293 293 293 294 294 293 293 293 293 293 293 293 293 293 293 292 292 292 292 292 291 291 291 291 290 290 290 289 289 289 288 288 288 287 287 287 286 286 285 285 284 284 284 283 283 283 283 283 283 282 282 282 281 281 281 281 282 283 284 284 285 284 284 284
290 289 287 288 288 289 290 291 293 294 294 294 293 292 292 292 291 292 292 292 292 293 293 293 293 293 293 293 293 293 293 293 293 293 292 292 292 292 292 291 291 290 290 290 289 289 289 289 288 288 288 287 287 286 286 286 285 285 284 284 283 283 283 283 283 282 282 282 282 282 281 281 281 280 280 280 280 281 283 284 284 284 283 283 283
290 289 287 287 288 289 290 291 292 293 293 291 291 290 291 291 291 291 292 292 292 292 292 293 293 293 292 292 292 292 292 292 292 292 292 292 291 291 291 290 290 289 289 289 289 288 288 288 287 287 287 286 286 285 285 284 283 283 283 282 282 282 282 282 282 282 281 281 281 281 281 280 280 280 280 280 280 281 282 283 284 283 282 282 282
290 289 288 287 287 289 290 290 290 291 290 289 290 290 291 291 291 292 292 292 292 292 292 292 292 292 292 292 292 292 292 292 292 291 291 291 291 290 290 289 289 288 288 288 288 288 287 287 286 285 285 284 284 283 283 282 282 282 282 282 282 282 281 281 281 281 281 281 280 280 280 280 280 280 280 280 280 280 282 283 283 282 282 282 281
291 289 289 287 286 288 289 289 289 290 289 289 289 289 290 290 291 291 292 292 292 292 292 292 291 291 291 291 291 291 291 291 291 291 291 290 290 289 289 288 288 288 287 287 287 286 285 285 284 283 283 283 282 282 282 282 282 281 281 281 281 281 281 281 280 280 280 280 280 280 280 280 280 280 279 280 279 280 281 282 282 281 281 280 280
291 290 290 288 287 288 289 288 289 289 289 289 289 289 290 290 290 290 291 291 291 291 291 291 291 291 291 291 291 291 291 290 290 290 290 289 289 288 288 288 287 287 286 286 285 284 284 283 283 282 282 281 281 281 281 281 281 281 281 281 281 280 280 280 280 280 280 280 280 280 280 280 280 279 279 279 279 279 281 281 280 280 280 279 279
291 291 290 289 287 288 289 289 289 289 288 288 289 289 289 290 290 290 290 291 291 291 290 290 290 290 290 290 290 290 290 290 290 289 289 289 288 288 287 287 286 285 284 284 283 283 283 282 282 281 281 281 281 281 281 281 281 281 281 281 280 280 280 280 280 280 280 280 280 280 280 279 279 279 279 279 278 278 279 279 279 279 278 278 278
292 292 290 289 288 288 288 288 288 288 288 288 289 289 290 290 290 290 290 290 290 290 290 290 290 290 290 290 290 289 289 289 289 289 288 288 287 287 286 285 284 284 283 283 283 282 282 282 281 281 281 281 281 281 281 281 281 281 281 280 280 280 280 280 280 280 280 280 280 279 279 279 279 279 279 278 278 278 278 278 278 278 278 277 277
292 291 291 291 291 290 289 288 287 288 288 288 288 289 290 290 290 290 289 289 289 290 289 289 289 289 289 289 289 289 289 289 289 288 287 286 286 285 284 284 283 283 283 283 283 282 281 281 281 281 281 281 281 281 281 281 281 280 280 280 280 280 279 279 279 279 279 279 279 279 279 279 279 278 278 278 277 277 277 277 277 277 277 277 277
292 292 294 295 295 292 289 288 287 287 288 288 289 289 289 290 290 289 289 289 289 289 289 289 289 289 289 289 288 288 288 288 287 287 286 285 284 284 283 283 283 283 283 282 282 281 281 281 281 281 280 280 280 280 280 280 280 280 280 279 279 279 279 279 279 279 279 279 279 279 278 278 278 277 277 277 277 276 276 276 277 277 277 277 276
292 294 297 297 295 292 289 287 287 287 288 288 289 289 290 290 289 289 289 289 289 289 289 288 288 288 288 288 288 288 287 287 286 285 285 284 284 284 283 283 283 283 282 281 281 281 280 280 280 280 280 280 280 280 280 280 279 279 279 279 279 279 279 279 279 279 279 278 278 278 278 277 277 277 276 276 276 276 276 276 277 277 277 276 276
293 296 298 296 294 291 288 288 287 288 288 289 289 290 290 290 289 289 289 289 289 288 288 288 288 288 288 287 287 287 287 286 285 285 284 284 284 283 283 283 282 282 281 280 280 280 280 280 280 279 279 279 279 280 279 279 279 279 279 279 279 279 279 279 278 278 278 278 277 277 277 276 276 276 276 276 276 276 275 276 277 277 276 276 275
295 297 298 296 294 291 290 289 288 289 289 290 290 290 290 290 289 289 289 289 288 288 287 287 287 287 287 287 287 286 286 286 285 284 284 284 283 283 282 282 281 281 280 280 280 280 279 279 279 279 279 279 279 279 279 279 279 278 278 279 279 279 278 278 278 277 277 277 277 276 276 276 276 276 276 276 275 275 275 276 277 276 276 275 275
295 298 299 297 295 293 291 290 289 290 290 291 290 290 290 290 290 289 288 288 287 287 287 287 287 287 286 286 286 286 285 285 284 284 283 283 283 282 281 281 280 280 280 279 279 279 279 279 279 279 279 279 279 279 279 278 278 278 278 278 278 278 278 277 277 277 276 276 276 276 276 276 276 275 275 275 275 274 275 276 276 276 275 275 274
295 297 298 298 296 294 291 290 290 290 290 290 290 290 290 290 289 289 288 288 287 287 287 287 286 286 286 286 286 285 285 285 284 283 283 283 282 281 280 280 280 280 279 279 279 279 279 279 279 279 279 279 279 278 278 278 278 278 278 278 278 277 277 276 276 276 276 276 276 276 276 276 276 275 275 275 275 274 274 274 274 275 275 275 274
295 298 299 299 298 295 292 291 290 290 291 290 290 289 289 289 288 288 288 288 287 287 286 286 286 286 285 285 285 285 285 284 283 283 283 282 281 280 280 280 280 280 279 279 279 279 279 279 279 279 279 279 278 278 278 278 277 277 277 277 277 277 276 276 276 276 275 276 276 276 276 276 276 276 275 275 275 274 274 273 273 273 274 274 274
296 298 300 300 299 297 294 293 292 291 290 290 290 289 289 288 288 288 288 287 287 286 286 286 286 285 285 285 285 284 284 283 283 282 282 282 281 281 280 280 280 280 279 279 279 279 279 279 279 279 278 278 278 278 278 277 277 276 276 276 276 276 276 275 275 275 275 275 275 275 276 276 276 275 275 275 275 275 274 273 273 273 273 273 274
297 299 300 301 300 299 296 295 293 292 291 290 290 289 289 289 289 288 288 287 287 287 286 286 285 285 285 284 284 284 284 283 282 282 282 281 281 281 281 281 280 279 279 279 279 279 279 279 279 278 278 278 278 278 277 277 276 276 276 276 276 276 275 275 275 275 275 275 275 275 275 275 275 275 275 275 275 274 274 273 273 273 273 273 274
296 298 299 301 301 300 299 297 295 293 291 291 290 290 290 290 289 289 289 288 287 287 286 285 285 284 284 284 284 284 283 283 282 282 282 281 281 281 281 281 280 280 279 279 279 279 279 279 278 278 278 278 277 277 277 277 276 276 276 276 275 275 275 275 275 275 275 275 275 275 275 274 274 274 274 274 274 273 273 273 272 272 273 273 274
295 297 299 300 301 302 301 300 298 296 294 292 291 291 291 291 291 290 289 288 287 286 285 285 284 284 284 284 284 284 284 283 283 282 282 281 281 281 281 281 281 280 279 279 278 278 278 278 278 278 278 277 277 277 277 276 276 276 276 275 275 275 275 275 275 275 275 275 275 274 274 274 274 274 273 273 273 273 272 272 272 272 273 273 274
296 297 299 300 301 302 302 301 300 298 296 293 292 292 292 291 291 290 289 288 287 286 285 284 284 284 284 284 284 284 284 283 283 282 281 281 281 281 281 281 281 280 280 279 278 278 278 278 278 278 278 277 277 277 276 276 276 275 275 275 275 275 275 275 275 275 275 275 274 274 274 274 274 273 273 273 272 272 272 272 272 272 273 273 273
299 299 300 301 301 302 302 302 301 299 297 294 293 292 291 290 290 289 288 287 286 286 285 285 285 285 284 284 284 284 283 283 282 282 281 281 281 281 282 282 281 281 280 279 279 278 278 278 278 277 277 277 277 276 276 276 275 275 275 275 275 275 275 275 275 275 274 274 274 274 274 273 273 273 273 272 272 271 272 272 272 273 273 273 272
303 303 303 303 303 303 303 302 301 300 298 296 294 292 291 290 289 288 287 287 286 286 285 285 285 285 284 285 284 284 283 283 282 282 281 281 281 282 282 282 281 281 280 279 279 278 278 278 277 277 277 277 276 276 276 275 275 275 275 275 275 275 275 274 274 274 274 274 274 274 273 273 273 273 272 272 271 271 272 272 272 272 272 272 272
304 304 304 304 304 304 303 302 301 301 300 298 295 293 291 290 289 288 287 287 286 286 286 286 286 285 285 285 284 283 283 283 282 282 281 281 282 282 282 282 281 280 280 280 279 278 278 277 277 277 277 276 276 276 276 275 275 275 274 274 274 274 274 274 274 274 274 274 274 273 273 273 272 272 272 271 271 272 272 272 272 272 272 272 272
303 303 303 303 303 303 302 302 301 301 300 299 297 294 291 290 289 288 287 287 286 286 287 287 287 286 286 285 284 283 283 283 282 282 281 281 282 282 282 281 281 280 280 280 279 278 277 277 277 277 276 276 276 276 275 275 275 274 274 274 274 274 274 274 273 273 273 273 273 273 273 272 271 271 271 271 271 272 272 271 271 271 272 271 271
302 302 302 302 302 302 301 301 300 300 300 299 298 295 292 290 289 289 288 287 287 287 288 288 288 287 286 285 284 283 283 283 282 282 281 281 282 282 282 281 281 280 280 280 279 278 277 277 277 277 276 276 276 275 275 275 275 274 274 274 274 274 273 273 273 273 273 273 273 272 272 271 270 270 270 271 271 271 271 271 271 271 271 270 270
302 302 302 302 301 301 300 300 300 300 300 299 298 296 293 291 290 290 289 288 288 289 289 289 289 287 286 285 284 283 283 283 283 282 281 282 282 282 281 281 280 280 280 280 279 278 278 277 277 276 276 276 275 275 275 275 274 274 274 274 274 273 273 272 272 272 272 272 271 271 270 270 270 270 270 270 270 271 271 271 271 270 270 269 270
301 301 301 301 301 300 300 300 300 300 300 299 298 297 295 293 291 290 290 290 289 290 289 289 288 287 286 284 283 283 283 283 282 282 281 282 282 281 281 281 280 280 280 280 279 279 278 277 276 276 276 275 275 275 275 275 274 274 274 273 273 273 272 272 272 271 271 271 270 270 269 269 269 269 270 270 270 271 271 271 270 270 269 269 269
299 300 300 300 300 300 300 300 299 299 299 299 298 298 296 295 293 292 292 291 290 290 289 289 288 287 286 284 284 284 283 283 282 282 282 282 282 281 281 281 280 280 280 279 279 279 278 277 276 276 276 275 275 275 274 274 274 274 273 273 273 273 272 272 271 271 270 270 269 269 269 269 269 269 269 270 270 270 270 269 269 268 268 268 268
298 298 299 299 300 300 300 300 299 299 299 298 298 298 297 296 295 295 293 291 290 289 289 288 288 287 286 285 284 284 283 283 282 282 282 281 281 281 281 281 280 280 280 279 279 278 278 277 276 276 275 275 275 274 274 274 274 273 273 273 273 272 272 272 271 270 269 269 269 269 268 269 269 269 269 269 269 268 268 267 267 267 267 267 266
297 297 298 298 299 299 299 299 299 299 298 298 298 297 297 297 297 296 294 292 290 289 289 288 287 287 286 285 284 284 283 283 282 282 281 281 281 281 281 281 280 280 280 279 279 278 277 276 276 275 275 275 274 274 274 274 273 273 273 273 272 272 272 272 271 270 269 268 268 268 268 269 269 268 268 267 267 267 267 267 266 266 265 265 265
297 296 296 297 297 298 298 298 298 298 298 298 298 297 297 297 297 296 295 293 291 289 288 288 288 287 287 285 284 284 283 283 282 282 282 281 281 281 281 281 280 280 280 279 279 278 277 276 275 275 275 275 274 274 274 273 273 273 273 272 272 272 272 272 270 269 268 268 268 268 268 267 267 267 267 267 267 266 266 265 265 265 264 264 263
296 296 296 296 296 297 297 297 297 297 297 298 298 297 297 298 297 296 295 294 292 289 289 288 288 287 287 285 284 283 283 283 282 282 281 281 281 281 281 281 280 280 280 279 279 278 277 276 275 275 275 274 274 274 273 273 273 273 272 272 272 273 272 271 269 268 268 268 267 267 267 267 267 267 267 266 266 265 265 265 264 264 263 263 263
296 296 296 296 296 296 296 297 297 297 297 297 297 298 297 297 296 296 295 294 291 290 289 289 289 288 286 285 284 283 283 283 282 282 282 281 281 281 281 281 280 280 279 279 278 278 276 275 275 275 274 274 274 273 273 273 273 272 272 272 272 272 271 269 268 267 267 267 267 267 267 267 266 266 266 265 265 265 264 264 264 263 263 262 262
296 296 296 296 296 296 296 296 296 297 297 297 297 297 297 296 296 295 294 293 291 290 290 290 289 288 287 286 285 284 283 283 282 282 282 282 281 281 281 281 280 280 279 279 278 277 276 275 275 274 274 274 273 273 273 273 272 272 271 271 271 270 269 268 267 267 267 267 267 267 266 266 265 265 265 265 264 264 264 263 263 263 262 262 261
296 296 296 295 295 295 295 295 296 296 296 296 297 297 296 296 295 294 294 293 292 291 291 290 289 288 287 286 285 284 284 283 283 282 282 281 281 281 281 281 280 280 279 279 278 277 276 275 274 274 274 273 273 273 273 272 271 271 270 270 270 269 268 267 267 267 267 267 266 266 265 265 265 264 264 264 263 263 263 262 262 262 262 261 261
296 296 296 295 295 295 295 295 295 295 295 295 295 295 296 295 295 294 294 293 292 291 290 290 289 288 287 286 285 284 283 283 282 282 282 281 281 281 281 280 280 280 279 278 278 277 276 275 274 274 273 273 273 272 272 271 270 270 270 270 270 269 268 267 266 266 266 266 265 265 265 264 264 264 263 263 263 262 262 262 262 262 261 261 260
295 295 295 295 295 295 295 295 295 294 294 294 294 294 294 295 294 294 294 293 292 291 290 290 289 288 287 286 285 284 284 283 283 282 282 281 281 281 281 280 280 280 279 278 278 276 275 274 274 273 273 273 272 271 271 270 270 270 270 270 269 269 268 267 266 266 266 265 265 264 264 263 263 263 263 262 262 262 262 262 261 261 261 260 260
Wind_Speed
13 17 17 17 19 22 26 27 27 27 28 29 30 30 31 32 30 30 30 30 29 28 25 23 21 20 20 19 18 16 15 13 12 11 11 11 11 11 10 9 9 7 7 6 6 6 6 6 6 6 8 8 10 11 11 12 12 13 13 14 15 15 16 16 17 18 17 18 18 17 17 14 14 13 12 17 19 16 17 20 21 22 22 23 24
14 19 19 18 18 20 22 25 27 29 29 30 31 32 33 34 33 32 33 33 32 30 28 25 23 22 20 18 16 15 15 14 14 13 13 12 12 11 10 9 8 6 6 5 5 5 5 5 6 7 8 9 10 11 11 12 13 13 14 15 15 17 17 18 19 19 20 21 20 20 19 17 16 15 15 21 19 16 20 22 22 23 24 24 25
15 17 20 21 20 19 19 20 21 23 27 30 30 32 34 34 34 32 30 29 29 29 28 25 22 20 18 17 16 15 16 15 15 14 13 12 11 10 9 8 7 5 5 4 4 4 5 6 7 8 9 10 10 11 11 12 13 14 15 15 16 16 17 18 19 20 21 20 20 19 18 17 15 17 22 22 17 18 22 23 24 25 25 25 26
18 18 18 20 22 22 22 22 22 20 22 24 22 24 30 32 31 31 29 27 26 24 24 21 19 18 16 16 16 15 16 15 14 13 12 11 9 8 7 6 5 4 4 4 4 5 6 7 8 9 10 10 11 11 12 13 14 14 15 15 16 17 17 18 18 20 20 21 21 16 13 14 11 20 30 23 17 23 25 25 26 26 25 26 27
20 23 21 20 21 23 23 23 24 24 22 22 18 16 21 24 25 26 25 25 24 22 22 21 20 18 17 16 15 15 15 15 13 12 11 9 8 7 6 5 4 4 4 5 6 7 7 8 9 9 10 11 11 12 13 13 14 15 15 16 17 18 18 19 19 20 20 21 21 16 10 10 13 24 30 22 21 27 28 30 31 29 29 30 29
19 25 26 24 22 21 23 23 23 23 22 22 20 16 15 17 18 19 20 22 22 21 20 19 18 18 17 16 15 14 14 13 12 11 9 8 6 5 5 5 4 5 5 6 7 8 8 9 9 10 11 11 12 13 14 14 15 16 17 17 18 18 19 20 20 21 21 20 20 17 11 10 17 23 22 22 28 29 27 32 34 35 36 36 36
19 24 26 27 26 23 23 24 24 24 23 23 22 19 18 18 18 17 18 19 20 20 18 17 16 16 14 13 12 12 11 11 10 9 8 6 6 5 4 5 5 6 6 7 8 9 9 10 11 11 12 13 13 14 14 15 16 17 17 17 18 18 19 19 20 21 21 20 20 18 16 16 18 19 17 21 28 30 31 31 32 36 38 38 39
21 25 25 26 27 26 24 23 23 23 23 23 22 21 21 21 20 19 18 17 18 18 17 15 14 14 13 11 11 11 10 9 8 7 6 6 5 5 5 5 6 6 7 8 9 9 10 11 12 12 13 13 14 14 15 16 16 16 17 17 18 18 18 19 19 20 20 20 20 20 20 20 20 18 17 19 20 27 34 33 33 36 36 37 38
23 25 26 26 26 27 25 23 23 22 21 20 19 20 19 19 18 18 17 16 16 16 15 14 13 13 12 11 11 10 9 8 7 6 5 5 4 4 5 5 6 7 8 8 9 9 10 10 11 12 12 13 14 14 15 15 16 16 16 17 17 18 18 18 18 19 19 20 20 21 21 21 20 18 19 21 19 21 26 30 36 39 39 39 39
23 24 27 28 27 27 26 25 23 22 21 20 19 19 18 17 16 16 15 15 15 15 14 13 13 12 11 10 8 8 7 7 7 6 5 5 4 4 5 5 6 7 7 8 9 9 10 10 11 12 12 13 13 14 14 14 15 16 16 17 17 17 17 18 18 18 19 20 20 21 21 21 20 18 18 21 20 18 20 26 30 33 39 41 39
24 25 27 29 29 28 27 26 25 23 22 21 21 20 19 18 17 16 16 16 16 15 14 13 13 11 10 9 7 7 7 7 6 5 5 5 4 4 5 5 6 7 7 8 9 9 9 10 11 11 12 12 12 13 13 14 15 15 16 16 17 17 18 18 19 19 19 19 20 20 20 19 18 17 18 20 20 19 22 26 26 27 32 34 36
26 27 28 29 29 28 27 27 26 25 24 23 22 21 20 19 18 17 17 16 16 15 13 12 12 10 9 8 8 7 7 6 5 5 4 4 3 4 5 5 6 7 7 7 8 8 9 9 10 10 11 12 12 13 13 14 14 15 15 16 17 18 18 19 19 19 20 20 20 20 20 20 18 17 19 21 21 21 22 24 26 28 30 30 33
29 28 28 29 29 28 27 27 26 25 24 23 21 20 20 19 18 17 17 16 15 14 13 11 10 10 9 8 8 7 7 5 4 4 3 3 4 4 5 5 5 6 6 7 7 8 9 9 10 10 11 12 12 12 13 14 15 15 16 17 18 18 18 19 20 20 21 21 21 21 20 20 19 19 20 21 21 21 21 22 25 26 27 30 32
30 28 28 29 29 28 27 26 25 24 23 21 20 19 19 18 18 17 16 16 15 13 12 11 10 9 9 8 7 6 5 4 3 3 3 3 3 4 4 4 5 5 6 7 8 8 9 9 10 11 11 12 13 13 14 15 15 16 17 17 18 19 19 19 20 20 20 20 20 20 20 19 18 19 20 20 21 20 19 21 24 26 28 31 30
30 29 28 28 28 27 26 25 24 23 22 21 20 19 18 18 18 17 17 16 15 13 12 10 9 9 8 7 6 5 4 3 3 2 2 2 3 3 4 5 5 6 6 7 8 8 9 10 11 12 12 13 14 14 15 15 16 17 17 18 18 19 19 19 19 19 19 19 19 20 20 19 18 19 20 20 20 19 17 16 19 25 32 34 32
27 27 29 27 27 27 26 25 24 23 22 21 21 20 19 18 17 16 16 16 14 13 12 10 9 8 7 6 5 4 3 2 2 2 2 2 3 4 4 5 5 6 6 7 8 9 10 11 12 12 13 13 13 14 15 16 17 17 18 18 19 19 19 19 19 19 19 19 20 20 20 19 18 19 20 21 20 19 16 14 14 18 25 32 35
24 27 30 28 28 28 27 26 25 24 23 22 21 20 19 18 18 17 16 15 14 13 11 10 8 7 6 5 4 3 2 2 1 2 2 3 3 4 4 5 5 6 7 7 9 10 10 11 11 12 12 13 14 15 16 17 18 19 19 19 19 19 19 19 18 19 19 19 19 19 19 19 19 20 21 21 21 19 15 12 13 13 16 23 29
24 27 27 26 29 29 27 26 25 24 24 23 22 21 20 19 18 17 16 15 13 12 11 9 8 6 5 4 3 2 2 1 1 1 2 2 3 4 4 5 5 6 7 8 9 9 10 11 11 12 13 15 16 17 18 19 19 20 19 19 19 19 19 18 18 18 18 18 18 18 19 19 20 21 22 22 21 19 14 11 12 13 15 19 22
26 27 25 26 29 29 28 26 25 24 23 23 22 21 21 19 18 16 15 14 13 11 10 8 7 6 4 4 3 2 1 0 1 1 2 3 3 4 4 5 5 6 7 8 9 10 11 12 13 14 15 16 17 18 18 19 19 19 19 19 19 18 18 18 18 19 19 19 19 19 20 21 21 22 23 23 22 19 15 14 14 15 17 22 23
27 26 25 27 30 29 28 26 25 25 23 23 22 21 20 19 17 16 14 13 12 11 10 8 7 7 5 4 3 2 1 1 1 2 2 2 3 4 4 5 6 7 8 8 9 11 12 13 14 15 15 16 17 18 18 19 19 19 19 19 19 19 19 20 20 20 21 21 21 21 21 22 22 23 23 23 23 20 18 17 17 19 21 23 24
27 25 25 29 32 29 28 27 25 25 24 23 22 21 20 19 17 16 15 13 12 11 10 9 8 7 5 4 3 2 1 1 2 2 2 2 3 4 5 6 7 7 8 9 10 12 12 13 13 14 15 16 17 18 18 19 19 19 20 20 20 21 21 21 21 21 22 22 22 22 22 22 22 23 23 22 22 21 21 20 18 21 23 21 22
26 26 29 32 33 31 29 28 26 26 25 24 23 22 21 20 18 17 16 14 13 12 11 10 8 7 6 5 3 2 2 2 2 2 2 3 3 4 5 6 7 8 9 10 11 12 12 13 14 15 16 17 18 18 19 19 20 20 21 21 22 22 22 22 22 22 22 22 22 22 21 22 22 22 22 22 23 23 23 24 22 22 22 21 21
27 29 33 34 33 33 32 30 29 28 27 26 25 23 22 21 19 18 17 16 14 12 11 10 9 8 6 5 3 2 2 2 2 2 2 3 4 5 6 7 8 9 10 11 11 11 12 12 13 14 15 16 17 18 19 20 21 21 21 22 22 22 22 22 21 21 21 21 21 21 21 21 22 23 23 23 24 24 25 25 24 21 20 22 24
30 33 35 35 36 35 34 32 31 30 28 27 26 24 23 22 21 19 18 16 15 14 13 12 10 8 6 4 3 3 3 3 2 2 2 3 5 5 6 7 8 9 10 10 10 10 11 12 13 14 15 16 18 19 20 21 22 22 22 22 22 21 21 21 20 20 20 20 20 21 21 22 23 23 24 25 24 24 25 24 21 19 18 22 26
34 38 38 38 39 37 35 34 33 31 30 29 27 26 25 23 22 20 19 18 17 16 14 12 9 7 6 5 5 5 4 4 2 2 3 3 4 5 6 8 8 9 9 9 9 9 10 11 13 14 15 17 18 20 21 22 23 23 22 21 21 20 20 20 20 20 20 21 22 22 22 23 23 24 24 24 25 25 24 21 18 18 20 24 27
40 41 40 40 39 38 37 36 35 34 32 31 30 28 27 25 23 21 21 20 18 17 14 11 10 9 8 7 7 6 5 4 2 2 3 3 4 5 6 7 7 7 8 8 9 10 11 12 13 15 16 18 20 21 22 22 22 22 21 21 21 21 21 21 21 21 22 22 23 23 24 23 23 24 24 25 25 24 22 19 18 20 22 23 24
43 42 40 41 41 40 40 39 38 36 34 33 32 30 28 26 25 24 23 21 19 16 14 13 12 11 9 8 7 6 5 4 3 2 3 3 4 5 6 6 7 7 8 9 10 11 12 13 14 16 18 19 21 22 22 22 22 22 21 21 21 21 22 22 22 22 23 23 23 23 24 23 23 23 25 25 25 23 20 19 19 20 21 21 22
42 44 43 44 44 44 44 42 40 38 37 35 33 31 30 28 28 27 25 22 20 18 16 15 13 12 10 9 8 7 6 5 4 3 3 3 4 5 6 7 8 8 9 10 11 12 13 14 15 17 18 20 21 22 22 22 22 22 22 22 22 22 22 22 22 23 23 23 24 24 23 23 24 24 24 25 24 22 20 20 20 20 21 22 23
45 48 48 48 48 48 47 44 43 41 39 37 36 34 33 31 30 28 25 23 21 19 18 16 14 13 12 10 9 8 7 6 5 4 2 3 5 6 7 8 9 9 10 11 11 12 13 14 15 17 18 20 21 21 21 21 21 22 22 22 22 22 22 23 23 23 23 23 23 24 24 25 25 25 26 26 24 22 20 22 23 23 23 23 24
52 53 52 50 50 50 49 47 45 44 42 41 39 37 35 33 31 29 27 25 22 21 19 17 16 14 13 12 11 10 9 7 5 4 2 4 5 6 7 9 10 10 11 11 12 13 13 15 16 17 19 20 21 21 20 20 20 21 22 22 22 22 22 22 23 23 23 24 24 25 26 27 27 28 28 27 26 24 22 22 24 24 23 23 24
56 56 54 53 52 51 50 49 48 47 45 43 41 39 37 35 33 31 29 26 24 22 21 19 18 16 15 14 13 11 9 7 5 4 2 3 4 6 8 9 10 11 12 12 13 13 14 15 16 17 19 20 20 20 20 19 19 20 21 21 21 21 21 21 22 23 23 24 25 26 27 28 29 29 30 30 29 27 26 26 26 24 22 23 25
58 58 58 56 54 53 53 52 51 49 47 45 43 41 39 37 35 33 30 28 26 24 22 21 20 18 17 15 13 11 10 8 7 5 3 2 4 7 9 10 11 12 13 13 14 14 15 16 16 18 19 20 20 19 19 19 19 19 20 20 20 20 20 21 22 23 24 25 26 28 28 29 30 29 30 30 30 30 29 28 27 24 23 24 24
58 60 60 58 57 55 54 54 52 50 49 47 45 43 40 38 36 34 31 29 28 26 25 23 21 19 18 15 13 13 12 10 9 7 3 3 5 8 9 11 11 12 13 14 14 15 15 16 17 18 19 20 20 19 19 19 19 19 19 19 19 20 20 21 22 23 24 26 27 29 29 30 31 29 28 28 29 31 30 28 26 24 24 24 24
56 59 60 59 57 56 55 54 52 50 49 47 45 42 40 39 37 35 33 31 29 28 26 24 22 20 19 17 15 15 14 12 11 7 4 4 6 9 11 12 12 13 14 14 15 15 16 17 17 18 19 20 20 19 19 19 19 19 19 19 19 20 20 21 23 24 25 26 28 30 30 31 31 27 25 27 30 31 29 27 26 26 26 26 26
55 58 59 59 58 57 56 55 53 50 48 47 45 43 42 40 38 36 34 32 31 29 27 25 24 22 21 19 18 17 16 14 11 7 5 6 8 11 12 13 12 13 14 15 16 16 17 17 18 18 19 19 19 19 19 19 19 19 19 19 20 21 22 23 24 25 27 28 29 30 31 32 31 28 28 30 30 29 27 28 28 28 28 28 27
51 53 55 55 56 55 54 53 52 51 49 48 47 45 43 42 39 37 36 34 32 31 29 27 26 25 22 20 19 19 17 14 11 8 6 8 10 12 14 14 13 13 14 15 16 17 17 18 18 19 19 19 19 19 18 18 19 19 19 20 21 22 23 24 25 26 28 29 30 31 31 32 32 31 32 31 28 27 28 29 30 30 30 30 30
41 44 47 49 51 51 52 52 52 51 50 49 47 46 45 43 41 40 38 37 35 34 32 29 28 26 24 21 21 20 18 15 12 9 8 9 12 14 14 14 13 13 14 15 17 17 18 18 18 19 19 19 18 18 18 18 18 19 20 21 22 24 24 26 27 28 29 30 31 32 32 33 32 32 32 29 26 26 28 29 31 32 33 35 34
35 37 41 45 47 49 50 51 51 50 50 49 48 47 47 46 44 43 41 40 39 37 34 32 29 27 25 23 22 21 18 16 14 11 10 12 14 15 15 15 14 14 15 16 17 18 18 19 19 20 20 19 18 18 18 19 18 19 21 22 23 25 26 28 29 29 31 32 33 33 33 32 32 31 30 27 25 26 28 30 32 34 37 38 35
31 32 34 36 40 44 47 49 50 51 50 50 49 49 49 48 47 45 44 44 43 40 36 33 30 28 26 25 23 21 19 17 15 12 12 14 15 15 15 15 14 15 15 16 18 19 19 20 20 20 21 20 19 18 18 18 18 19 21 23 24 26 27 29 30 31 33 33 33 34 33 31 30 29 26 25 25 26 28 31 33 35 37 37 37
27 29 30 31 33 37 42 46 48 49 49 49 50 50 51 51 49 48 47 48 46 41 37 33 30 29 28 26 25 22 20 18 16 14 14 16 16 16 16 15 15 16 16 17 18 19 20 20 20 21 21 21 20 19 18 18 19 19 21 23 24 26 28 29 31 32 33 33 33 33 31 27 26 26 25 25 27 27 28 31 33 35 38 40 43
25 26 28 30 32 34 37 39 41 44 46 47 49 51 53 53 52 51 52 51 47 41 37 34 32 30 29 28 26 23 21 19 18 16 16 18 17 17 17 16 16 16 17 18 19 20 20 20 21 21 22 22 21 20 18 19 19 19 20 23 24 26 28 29 31 32 32 32 31 28 26 24 24 26 26 27 27 27 29 33 36 39 42 42 45
24 26 28 30 31 33 35 36 37 40 42 44 47 50 52 53 54 55 54 51 46 42 39 36 33 32 31 29 27 24 22 21 20 19 19 19 18 18 17 17 17 17 18 19 20 20 20 20 21 21 22 22 21 21 19 19 19 19 20 22 24 26 27 28 31 32 30 29 28 26 25 26 26 26 27 28 31 33 35 39 41 42 43 43 44
18 23 27 29 31 32 34 35 36 37 39 41 45 47 49 52 54 55 54 50 46 43 40 38 36 34 32 31 28 26 24 23 21 21 20 20 19 19 18 18 18 18 18 19 20 21 21 21 21 21 22 22 21 21 20 19 19 20 21 22 23 25 27 28 30 29 28 30 31 28 26 26 26 28 32 35 37 40 41 41 42 43 45 46 47
14 17 21 26 29 31 32 34 35 36 37 40 42 44 47 49 50 51 52 50 47 45 42 40 39 36 34 32 30 28 26 24 23 23 22 21 21 20 19 19 18 18 19 20 21 21 21 21 21 21 22 22 22 21 21 20 20 21 22 23 24 25 28 29 28 29 30 31 30 27 26 29 33 36 39 40 40 41 42 43 45 47 48 47 46
15 15 17 22 26 29 31 33 35 36 38 39 40 42 44 45 46 47 48 49 48 47 45 43 41 38 35 33 32 30 28 26 25 24 24 22 21 20 20 20 19 18 19 20 21 22 22 21 22 22 22 22 21 22 22 21 21 22 23 24 25 27 29 30 29 29 28 27 26 29 32 36 38 40 40 41 42 44 45 47 47 46 44 42 41
18 17 17 19 22 26 30 33 34 36 38 39 39 41 42 42 43 44 45 46 47 48 48 46 43 40 37 35 34 32 30 28 27 26 25 24 23 22 21 20 19 19 20 20 21 22 22 22 22 22 22 21 21 21 22 21 22 23 24 26 28 30 31 31 29 28 27 27 29 33 36 37 39 40 42 44 46 46 46 44 42 40 40 38 37
19 18 19 20 22 25 29 32 34 35 36 37 38 39 40 40 41 42 42 43 46 49 50 48 45 42 40 38 37 34 31 30 28 27 26 25 24 23 22 21 20 20 20 21 21 22 22 22 23 23 23 22 21 21 21 22 23 24 26 28 30 31 31 30 28 28 29 31 33 35 37 39 40 42 43 43 43 42 41 40 38 37 37 36 35
19 20 21 23 24 27 28 30 32 33 34 35 36 37 37 39 40 41 42 44 46 49 50 49 47 45 43 40 37 35 33 31 29 28 27 26 24 23 22 21 21 21 21 21 21 22 22 22 23 23 23 22 21 21 21 22 23 24 26 28 29 29 29 28 26 25 29 33 36 38 39 41 41 41 41 40 39 38 38 37 37 36 36 35 35
23 23 24 25 27 28 29 30 30 30 31 33 34 34 36 38 40 41 43 45 46 47 48 48 48 46 44 40 38 36 33 31 29 28 27 26 25 24 23 22 22 21 21 21 21 22 23 23 23 23 23 22 22 21 21 21 23 23 25 27 28 28 27 24 20 23 32 36 37 39 39 39 39 38 38 38 37 37 37 37 36 36 36 36 35
26 26 27 28 28 29 29 30 29 29 31 32 32 33 35 37 39 42 43 44 45 46 47 48 48 47 45 41 39 37 34 31 30 30 29 28 26 25 24 23 22 22 22 21 22 22 23 24 24 23 22 22 21 21 21 21 22 23 25 27 27 27 26 23 22 28 34 35 35 36 36 35 36 36 36 36 36 36 37 37 36 36 36 36 36
30 30 31 31 31 31 31 31 30 31 32 32 31 33 34 36 38 41 42 43 45 46 46 47 47 47 46 43 40 37 34 32 32 31 30 28 27 26 24 23 22 22 22 21 22 22 22 23 24 23 22 21 20 20 21 21 23 25 26 27 27 28 27 27 29 32 33 32 32 33 33 32 33 33 34 34 35 35 35 36 36 36 35 35 36
Wind_Direction
123 134 143 150 153 156 162 166 167 166 165 164 161 160 162 161 164 167 162 159 158 157 156 154 154 155 155 153 150 147 144 143 139 134 129 125 121 121 122 118 113 108 100 88 75 65 54 42 28 14 7 1 359 358 356 355 352 350 350 349 347 345 343 342 341 341 339 337 339 341 343 343 338 336 341 341 342 341 338 340 339 337 338 336 336
128 131 135 141 148 154 158 161 164 164 164 167 161 155 158 158 158 161 158 155 155 154 153 154 153 154 153 151 150 147 142 140 136 130 127 124 123 123 121 114 109 100 90 79 66 52 39 27 13 5 0 357 356 355 353 350 347 348 349 350 350 349 348 347 346 346 348 346 345 345 346 346 337 328 338 343 343 343 339 339 338 338 338 337 337
131 130 133 137 141 147 151 151 154 155 154 158 156 150 153 155 152 152 153 153 151 148 148 151 150 151 151 147 144 141 136 134 132 128 126 126 124 121 115 111 104 92 80 67 50 30 16 7 2 359 354 352 351 349 347 345 345 346 348 351 353 354 353 353 352 351 353 352 352 352 347 348 338 324 334 343 343 341 338 337 336 337 338 337 337
135 132 133 136 138 141 144 143 144 146 144 144 145 144 148 151 148 146 149 150 149 146 144 144 144 144 143 139 137 136 132 130 130 128 126 125 121 116 111 105 94 79 63 41 25 12 5 360 356 354 351 350 348 346 345 345 347 349 350 352 353 355 355 356 357 357 358 359 3 3 351 353 344 326 334 342 340 337 335 335 333 333 336 335 336
140 139 138 137 137 136 137 140 141 141 141 139 139 139 140 143 143 144 146 146 145 144 141 139 141 139 135 133 133 133 130 129 130 127 125 123 117 112 101 88 73 53 36 21 15 9 4 1 358 355 352 352 350 350 350 350 352 351 351 353 354 357 359 359 360 0 4 8 11 15 5 350 336 334 340 338 332 335 335 335 334 334 336 336 336
144 141 140 140 139 137 135 138 140 138 141 142 143 145 140 140 143 144 142 138 135 135 133 132 133 132 131 131 131 132 131 130 129 126 124 121 112 100 80 64 48 34 25 17 13 9 5 2 360 358 356 356 356 355 354 352 351 351 352 354 355 358 0 0 0 1 3 5 10 17 15 350 339 344 345 331 327 331 332 335 335 336 338 339 339
148 143 142 141 142 145 143 142 143 143 147 146 147 153 152 146 144 141 135 130 128 127 125 124 123 122 124 128 130 136 138 133 127 124 119 110 95 79 63 48 36 27 21 16 12 7 3 2 359 359 359 358 357 355 352 352 352 352 353 354 355 357 358 359 359 0 2 1 3 5 3 357 353 352 347 335 330 327 329 333 332 333 337 337 338
150 145 144 143 144 147 148 146 145 145 145 144 146 151 149 145 142 139 133 127 123 121 120 120 118 120 126 134 141 147 148 137 125 118 105 90 78 65 51 40 31 23 18 14 10 6 3 2 0 359 358 355 355 353 353 354 355 355 354 354 355 356 357 359 359 359 0 0 360 0 360 0 1 358 351 347 336 324 329 333 329 330 333 334 335
155 150 148 146 147 148 149 150 149 147 144 145 148 148 145 143 140 139 137 131 125 121 122 124 125 131 139 146 150 148 141 128 114 104 94 81 69 57 45 36 28 22 18 13 9 6 3 1 359 356 355 355 355 355 354 355 354 354 355 356 357 358 358 0 0 0 2 1 2 3 4 3 3 0 352 349 343 328 326 330 331 333 333 334 335
161 156 152 150 151 152 153 153 153 153 153 155 157 154 152 150 145 143 140 134 130 129 132 137 140 144 147 146 144 135 122 112 105 97 90 81 67 54 43 33 26 20 14 11 7 4 1 358 356 354 355 355 354 354 354 354 355 357 358 359 359 359 360 1 2 3 3 3 3 3 4 3 1 357 351 348 346 335 324 325 332 334 332 334 334
167 163 158 156 156 156 157 157 157 159 162 164 163 160 158 153 150 148 143 139 138 138 143 146 143 142 140 134 126 120 110 103 101 95 89 84 68 52 40 29 22 15 10 8 4 0 358 356 355 354 354 354 353 355 356 357 358 359 359 360 360 0 2 3 3 3 3 2 3 4 4 4 2 356 351 350 347 339 330 326 329 331 329 331 333
172 169 164 160 160 160 161 161 161 162 164 164 162 160 157 153 152 150 146 144 140 140 143 142 138 136 132 128 120 114 108 104 101 95 90 80 59 44 33 23 17 11 6 2 356 356 356 354 355 355 355 356 357 358 359 359 360 359 0 1 2 2 1 3 3 2 3 4 4 6 4 2 2 356 352 352 349 343 335 327 327 330 328 327 331
175 173 169 164 163 164 165 164 163 163 162 162 160 158 156 154 154 153 148 144 141 141 142 139 138 135 128 125 119 114 110 107 100 90 80 65 47 38 28 18 11 3 357 354 352 354 355 354 355 355 356 357 357 358 359 359 1 1 2 1 1 2 2 4 6 5 4 3 2 3 1 359 359 355 352 353 350 345 339 330 327 328 325 324 328
177 176 173 168 167 167 167 165 163 162 161 160 158 157 156 154 153 152 148 146 146 145 146 144 141 135 128 126 121 117 113 105 97 83 67 52 40 28 17 8 1 357 354 354 355 355 353 353 354 354 356 357 358 359 359 0 1 1 2 3 3 5 5 6 7 5 3 1 360 360 359 359 357 355 354 353 350 347 341 333 329 327 325 325 327
179 180 178 172 170 168 167 165 163 162 161 160 158 157 157 155 152 154 152 151 151 149 148 147 144 138 133 130 124 119 114 105 94 75 59 40 23 11 5 2 359 358 356 354 353 352 352 353 355 356 357 358 358 359 359 1 3 5 6 7 7 6 6 5 4 3 2 0 360 359 0 360 356 354 353 351 350 347 340 335 333 331 328 327 326
182 183 180 175 172 170 169 168 165 164 162 161 160 160 162 160 158 159 158 154 153 152 151 149 146 140 133 129 125 121 112 102 89 61 45 21 11 6 0 358 357 355 353 351 351 352 353 354 355 356 356 357 358 359 2 5 6 8 9 7 6 4 3 3 2 2 2 1 1 359 359 358 352 351 351 348 348 346 340 335 334 335 330 326 325
186 184 181 179 176 175 173 170 167 166 164 164 164 164 166 165 165 165 163 160 156 154 153 150 144 138 136 133 129 125 115 96 74 35 21 11 6 359 353 352 351 352 351 351 352 353 354 355 356 357 358 0 3 5 6 7 6 6 7 6 4 2 2 2 1 1 1 1 360 357 355 353 348 348 348 346 346 345 340 333 331 333 328 322 321
187 184 182 182 180 178 174 172 170 168 168 169 168 168 167 167 166 167 165 162 159 156 154 149 144 142 142 141 132 127 125 81 31 12 0 356 354 350 349 349 350 352 352 352 354 356 357 358 360 2 4 5 6 6 6 5 5 4 3 2 2 1 0 359 358 358 357 356 355 353 350 348 345 345 345 344 346 344 335 327 324 324 321 317 314
186 183 182 184 183 180 176 173 172 172 172 173 172 171 169 168 166 166 165 163 160 158 155 150 149 151 153 154 153 152 155 155 343 340 342 347 350 345 346 348 348 351 355 357 359 0 1 3 4 5 6 6 5 4 3 2 2 1 359 357 357 357 357 356 355 353 352 351 350 349 347 345 343 343 344 343 344 341 330 322 319 318 316 314 314
184 182 183 186 185 181 178 176 175 175 177 178 177 174 172 170 168 168 168 166 164 162 161 161 161 165 170 170 172 178 186 251 311 326 335 338 337 336 341 347 352 359 2 3 3 3 5 5 5 4 2 2 1 1 0 358 356 355 353 353 352 353 354 354 353 350 349 348 347 346 344 342 340 340 342 341 339 336 328 321 318 315 315 315 317
182 181 185 187 185 181 179 179 178 179 180 181 180 178 175 174 173 171 172 172 172 170 169 172 173 175 178 179 185 194 213 274 292 301 316 322 328 339 351 356 3 5 4 3 2 4 4 2 1 360 358 359 358 357 355 353 351 350 349 350 350 352 352 351 350 348 346 345 343 343 341 339 337 336 337 337 335 332 326 321 317 313 314 318 319
182 184 186 187 185 183 182 182 182 184 184 184 183 182 180 179 178 177 178 178 179 178 177 179 182 184 187 188 195 207 227 258 277 289 310 328 341 354 3 3 3 1 359 1 2 2 1 359 358 357 357 356 354 352 350 348 347 348 348 349 349 349 349 347 346 345 343 341 340 340 338 335 333 334 335 335 334 331 326 322 318 314 314 317 317
184 187 187 188 189 187 186 185 187 188 187 187 187 186 184 184 183 182 183 185 185 185 187 188 189 190 190 190 200 219 240 260 276 297 321 342 353 359 0 356 355 356 359 1 1 359 357 355 355 354 353 353 351 349 348 346 346 346 347 348 347 346 345 343 343 341 339 338 337 336 336 334 335 337 337 335 333 329 325 322 319 315 312 313 315
187 187 189 192 193 191 189 189 190 190 190 190 190 190 189 189 188 188 189 191 192 192 194 194 192 191 191 196 211 226 241 251 261 293 328 343 350 351 350 351 354 358 359 358 356 354 352 351 352 352 353 353 351 348 346 344 344 344 345 345 344 342 341 341 340 339 337 336 336 338 339 340 340 338 336 334 331 326 324 323 318 312 307 309 313
188 190 193 195 195 193 192 193 193 193 194 194 194 195 195 193 192 193 194 196 196 197 197 194 193 194 196 204 214 223 234 242 257 300 327 337 343 345 349 354 357 356 355 351 348 347 349 352 354 354 353 351 348 345 343 342 341 341 341 340 339 339 339 339 338 337 336 337 340 342 343 343 341 337 335 331 327 325 326 323 313 307 307 308 310
190 192 196 198 198 197 196 197 197 197 198 198 198 198 198 196 196 198 200 201 200 199 197 196 197 198 201 208 216 225 234 245 266 297 316 329 341 348 353 356 354 350 347 345 346 348 352 355 354 353 351 347 345 343 341 339 338 337 337 337 337 337 337 338 337 337 339 341 343 343 342 342 339 335 332 329 327 328 326 319 310 307 307 308 308
193 195 198 200 200 201 201 201 200 200 201 202 202 201 200 200 200 201 202 203 203 200 199 200 201 201 204 211 219 228 237 247 260 279 306 327 344 352 356 355 349 347 346 345 349 352 354 354 352 350 348 345 343 341 338 337 335 334 334 335 335 336 337 338 338 339 342 343 342 341 340 339 337 334 332 331 330 329 322 314 310 308 308 306 306
196 199 201 203 203 204 204 203 202 203 204 204 204 203 203 203 204 204 204 204 204 203 203 203 204 204 208 214 220 228 234 241 248 263 287 321 354 2 360 353 347 345 345 347 350 352 353 352 349 346 344 342 340 337 336 334 333 332 332 334 335 336 337 338 339 342 343 343 342 340 338 337 336 335 334 332 332 329 321 314 312 309 305 304 304
199 202 204 205 205 206 206 204 204 205 205 205 205 205 204 205 206 207 207 207 206 205 205 206 207 208 212 216 221 226 232 235 238 250 279 350 13 9 357 346 341 341 344 348 351 352 351 348 344 341 338 337 336 335 333 332 331 331 332 333 335 337 339 340 341 343 343 342 340 337 336 336 335 335 334 333 333 331 324 317 314 310 305 302 302
202 204 206 207 208 208 208 207 206 206 206 206 206 205 205 206 207 208 208 208 208 207 208 209 210 212 214 217 221 225 229 230 233 252 313 16 13 355 341 335 336 340 345 349 350 350 347 342 338 336 335 335 334 332 331 330 330 330 329 331 334 337 340 342 342 342 340 339 337 335 335 335 335 334 334 332 331 331 327 320 315 311 306 302 300
205 206 207 209 210 210 210 210 209 208 208 208 207 207 207 208 209 210 210 209 210 211 212 211 211 213 215 217 220 225 229 231 238 262 312 4 348 331 329 332 339 344 347 348 346 344 341 336 333 333 332 332 331 329 327 327 327 326 327 329 333 337 339 340 340 338 337 337 336 335 335 335 335 334 332 331 330 329 329 325 320 315 306 299 297
206 207 208 210 211 212 212 213 212 211 210 210 210 209 209 210 212 213 212 212 212 213 213 212 212 214 216 218 222 228 234 236 242 257 282 320 316 319 326 332 341 345 345 345 342 338 335 332 331 331 331 330 328 325 323 323 323 324 325 328 331 335 337 336 335 334 333 334 334 334 333 333 333 331 329 330 329 328 328 326 321 314 303 298 296
208 209 210 211 213 214 215 215 214 213 213 213 213 212 213 215 216 216 215 213 213 213 213 212 213 216 218 220 225 232 236 237 241 251 264 285 304 315 321 327 336 341 342 341 337 333 330 329 329 330 330 328 325 323 321 321 321 322 324 326 329 331 332 331 331 331 331 332 332 332 331 331 330 328 326 327 326 325 324 321 316 310 303 300 297
211 212 213 214 215 216 217 218 217 217 216 216 216 216 217 218 218 217 216 214 214 214 213 213 216 219 219 221 227 233 235 237 240 245 250 269 295 308 312 319 328 335 339 337 332 329 327 326 327 328 328 326 322 321 320 319 319 320 321 323 325 326 327 328 328 329 330 331 331 330 330 328 327 324 322 324 325 323 319 313 309 306 302 300 299
215 216 216 217 218 218 219 220 219 219 218 218 218 218 218 219 218 218 217 216 216 217 215 215 218 221 220 222 229 234 235 236 239 241 244 265 287 299 304 312 321 329 333 332 329 327 324 323 324 325 326 325 321 318 318 317 317 318 318 320 322 323 325 326 327 328 328 329 330 329 326 324 323 321 321 324 324 319 312 308 306 305 303 302 300
220 220 220 220 220 221 222 222 221 220 219 219 220 219 219 220 219 219 218 218 218 219 217 218 220 222 222 225 231 234 234 235 239 240 242 262 282 292 299 306 315 321 325 327 326 324 321 320 321 323 325 324 320 317 317 316 315 315 316 318 320 321 323 324 325 326 327 327 327 325 323 322 321 320 321 324 322 314 309 307 305 304 304 302 301
229 227 226 226 225 225 225 225 224 223 222 221 221 220 220 220 219 219 219 219 219 220 219 220 223 224 225 228 231 233 234 234 237 240 243 261 278 287 294 302 308 313 318 322 323 322 319 319 319 321 324 324 319 316 314 313 313 313 314 316 318 320 321 322 323 325 325 325 324 322 321 321 320 320 323 323 318 312 308 306 305 305 304 304 304
237 235 232 231 230 229 229 229 228 227 225 224 223 222 221 221 221 220 220 220 221 221 221 223 225 227 228 229 230 231 233 235 238 239 244 259 274 283 290 296 301 306 313 318 321 320 318 317 318 320 322 322 319 314 312 311 311 311 313 315 317 319 320 321 323 323 322 322 322 321 321 320 320 322 322 317 312 309 308 306 306 305 303 303 305
238 239 238 236 235 233 232 232 231 230 229 227 225 224 223 223 223 222 222 223 223 223 224 226 228 230 230 229 229 230 232 235 239 239 244 258 271 278 286 292 297 302 308 313 317 319 317 316 317 319 320 320 318 314 310 309 308 309 312 314 317 319 321 321 321 321 321 321 321 321 321 321 321 321 316 309 309 310 308 306 304 303 303 304 306
236 238 238 239 239 236 234 234 233 232 231 229 227 226 225 225 225 225 225 226 226 226 228 230 230 230 230 228 228 230 232 236 239 239 244 256 267 275 282 288 293 298 303 308 313 316 316 316 316 317 318 318 315 312 309 306 306 308 310 313 316 318 319 320 320 320 321 321 320 320 320 318 317 314 310 308 310 309 303 300 298 300 304 306 306
240 239 238 237 237 237 236 237 237 235 234 232 229 228 227 227 227 228 228 230 230 230 231 231 230 230 229 228 227 230 233 236 238 239 244 254 263 271 278 285 290 295 300 304 310 314 315 314 314 315 316 315 313 310 307 305 306 307 310 312 315 317 319 319 319 320 320 320 320 318 313 309 307 309 310 308 304 299 294 293 295 298 301 302 302
241 239 238 236 236 236 237 238 238 237 236 234 232 231 230 229 229 231 232 232 231 231 231 231 230 230 229 228 228 230 233 235 236 239 244 252 261 268 275 282 287 292 297 301 306 311 313 312 312 312 313 312 310 308 305 304 305 305 308 311 313 315 318 318 318 319 319 317 313 309 308 310 309 307 303 296 292 292 294 296 297 298 299 299 298
245 240 238 236 236 236 236 236 236 236 236 234 234 233 233 232 233 234 235 234 232 231 232 231 230 230 229 228 229 231 234 236 237 240 244 250 258 265 272 279 283 289 295 298 303 308 310 309 309 309 311 311 308 305 304 304 304 304 306 308 310 313 315 317 318 317 314 313 312 311 311 310 302 295 293 293 294 298 300 301 300 299 299 299 298
258 252 245 240 238 238 237 237 237 236 235 234 234 234 234 235 237 237 236 234 232 231 231 230 230 230 230 230 230 232 234 235 236 239 243 248 256 262 269 275 280 286 292 295 301 305 307 306 306 307 309 309 307 304 303 303 305 306 306 308 310 313 315 317 317 315 313 314 314 309 302 297 295 296 298 300 301 302 301 301 301 301 302 304 305
259 257 251 245 243 242 240 239 238 236 236 235 235 235 236 236 238 238 237 235 233 231 231 231 231 231 231 230 230 231 233 235 236 239 243 248 255 260 266 272 277 284 289 293 298 303 304 304 304 305 308 308 305 304 303 305 307 307 307 310 313 314 316 318 318 316 314 310 304 299 297 298 300 302 303 303 303 303 303 304 306 308 310 313 315
254 253 252 249 246 244 242 241 240 238 237 237 236 236 236 236 237 238 238 237 233 231 232 232 233 232 231 230 229 229 231 233 235 239 243 247 253 257 263 269 275 281 287 291 295 300 301 301 302 304 306 305 304 302 304 306 307 307 310 314 316 317 319 320 319 317 312 305 300 299 300 301 302 302 302 303 304 305 307 309 312 315 318 321 321
258 255 254 251 248 245 242 241 240 240 239 238 238 237 237 238 238 239 239 237 234 232 232 233 233 232 230 228 228 229 231 233 235 238 242 246 250 255 261 267 273 279 284 289 293 297 299 299 301 303 304 303 303 302 303 305 307 311 317 319 320 321 320 320 320 317 310 303 299 299 299 300 301 302 303 304 306 309 312 315 319 322 323 325 325
261 257 253 250 248 248 246 244 244 243 242 242 241 241 240 238 238 238 238 236 234 233 233 235 234 233 231 230 230 230 232 234 237 239 243 247 250 255 260 266 271 277 282 287 292 296 297 298 299 301 302 302 301 301 304 308 312 317 320 320 320 319 317 318 320 313 300 296 298 300 302 303 304 305 307 310 313 316 320 323 325 326 327 327 328
258 257 256 255 253 252 250 249 249 248 247 245 245 244 242 239 238 238 237 235 235 233 234 234 234 233 232 231 230 231 232 235 237 240 243 246 249 253 258 263 269 275 280 286 291 294 296 297 298 299 299 298 299 302 307 311 314 316 316 315 315 314 313 315 311 296 291 296 301 304 305 307 310 312 315 318 321 324 327 329 330 330 330 330 331
253 254 255 255 255 255 253 252 252 251 248 247 247 247 245 241 239 238 237 237 236 234 233 233 233 232 232 231 230 230 231 234 237 240 242 244 246 249 255 261 267 274 279 285 289 292 295 295 295 295 295 297 301 307 309 310 311 311 311 312 311 309 307 303 294 291 296 303 306 307 309 312 315 318 321 324 328 331 332 333 333 332 332 332 332
252 251 252 252 254 255 253 252 251 248 247 248 249 248 247 245 242 240 239 238 237 235 233 233 232 232 231 231 230 230 231 233 236 238 240 241 243 248 253 258 264 271 276 282 287 290 292 293 293 294 296 299 302 303 305 307 308 309 310 310 307 304 303 301 297 300 306 309 309 311 315 317 319 323 326 329 333 334 335 334 333 333 333 334 334